[[{"header":{"parameterUnit":"m.s-1","parameterCategory":1,"la1":30.2991,"la2":30.254,"lo1":-89.0895,"lo2":-89.0444,"dy":0.0017,"dx":0.0017,"nx":28,"ny":28,"refTime":"2025-02-05T03:00:00:Z","depth":0,"parameterNumber":2,"parameterNumberName":"U-component_of_WINDS"},"data":[0,0,0,0,0,0,0,0,0,0,0,0,0,0,0,0,0,0,0,0,0,0,0,0,0,0,0,0,0,0,0,0,0,0,0,0,0,0,0,0,0,0,0,0,0,0,0,0,0,0,0,0,0,0,0,0,0,0,0.353,0.353,0,0.358,0.3581,0.3581,0.3593,0.3592,0.3592,0.3592,0.3645,0.3647,0.3648,0,0,0,0,0,0,0,0,0,0,0,0,0,0.3444,0.3445,0.353,0.353,0.3531,0.358,0.3581,0.3581,0.3593,0.3592,0.3592,0.3592,0.3644,0.3646,0.3648,0,0,0,0,0,0,0,0,0,0,0,0,0,0.3486,0.3446,0.3529,0.3542,0.3544,0.358,0.3581,0.3581,0.3593,0.3592,0.3592,0.3591,0.3644,0.3646,0.3649,0.3675,0,0,0.3657,0.3658,0,0,0,0,0,0,0,0,0.3484,0.3489,0.354,0.3542,0.3544,0.358,0.357,0.3613,0.3593,0.3574,0.3592,0.3591,0.3624,0.3628,0.3638,0.3678,0.368,0.3657,0.3658,0.366,0.366,0,0,0,0,0,0,0,0.3481,0.3487,0.355,0.3541,0.3543,0.3546,0.3551,0.3578,0.3601,0.3576,0.3577,0.3583,0.3625,0.3636,0.364,0.3681,0.3657,0.3659,0.3661,0.3662,0.3743,0.3744,0,0,0,0,0,0,0.3476,0.3485,0.3548,0.3551,0.3512,0.3548,0.3554,0.3569,0.3601,0.3606,0.3583,0.3583,0.3632,0.3637,0.3642,0.3674,0.366,0.3662,0.3663,0.3742,0.3743,0.3744,0,0,0,0,0,0,0.3474,0.3481,0.3546,0.3518,0.3527,0.355,0.3566,0.357,0.3581,0.3606,0.3611,0.359,0.3632,0.3638,0.3666,0.3676,0.3663,0.3666,0.3742,0.3743,0.3744,0.374,0,0,0,0,0,0,0.3471,0.348,0.3491,0.3518,0.3528,0.357,0.3567,0.3571,0.3586,0.3586,0.3615,0.3619,0.3632,0.3662,0.3669,0.368,0.3668,0.3741,0.3742,0.3743,0.3739,0.3741,0.3742,0,0,0,0,0,0.3468,0.3488,0.3491,0.3499,0.3541,0.357,0.3576,0.359,0.3586,0.3597,0.3613,0.3618,0.3674,0.3665,0.3673,0.3684,0.374,0.3742,0.3743,0.3739,0.374,0.3742,0,0,0,0,0,0,0.3462,0.3492,0.3496,0.3526,0.3545,0.3572,0.3586,0.3591,0.3613,0.3612,0.3629,0.3635,0.3663,0.3676,0.3666,0.3711,0.3707,0.371,0.3701,0.3703,0.3704,0.37,0.367,0,0,0,0,0,0.3464,0.3485,0.351,0.3534,0.3543,0.3563,0.3576,0.3585,0.3606,0.3615,0.3633,0.3653,0.3676,0.369,0.3712,0.3741,0.3747,0.3753,0.3754,0.3755,0.3757,0.3772,0.3775,0.3748,0.3748,0.3748,0,0,0.3469,0.3488,0.35,0.3533,0.3549,0.357,0.357,0.3592,0.3608,0.3618,0.3646,0.366,0.3684,0.3712,0.3726,0.3725,0.3766,0.3756,0.3757,0.3759,0.3774,0.3777,0.3779,0.3749,0.3749,0.3749,0,0,0.3488,0.3504,0.3526,0.3542,0.3566,0.3578,0.3583,0.3609,0.3619,0.3646,0.3654,0.3673,0.3711,0.3728,0.3741,0.3764,0.377,0.3771,0.3778,0.3793,0.3795,0.3797,0.3804,0.3807,0.3773,0.3773,0.3773,0,0.3491,0.3523,0.3536,0.3558,0.3572,0.3581,0.3602,0.3617,0.3647,0.3657,0.3655,0.3702,0.3719,0.3751,0.3756,0.3767,0.3773,0.3768,0.3793,0.3795,0.3797,0.3805,0.3808,0.3773,0.3773,0.3773,0.3773,0,0.3525,0.3546,0.356,0.3588,0.3604,0.3626,0.3642,0.3656,0.3663,0.3676,0.3704,0.3724,0.375,0.3758,0.3765,0.3791,0.3789,0.379,0.3786,0.38,0.3807,0.381,0.3773,0.3773,0.3773,0.3773,0,0,0.3543,0.3577,0.3582,0.3594,0.3621,0.3638,0.3659,0.3683,0.3695,0.3715,0.3733,0.3764,0.3765,0.378,0.3789,0.3802,0.3819,0.3802,0.3802,0.3804,0.3847,0.3846,0.3849,0.3822,0.3823,0.3823,0.3845,0,0.3565,0.3603,0.3615,0.3647,0.3667,0.3675,0.3694,0.3712,0.3724,0.3742,0.3756,0.3777,0.3777,0.3786,0.3799,0.3814,0.3828,0.3813,0.3839,0.384,0.3833,0.3853,0.3853,0.3872,0.3848,0.3848,0.3849,0,0.3596,0.3616,0.3649,0.3672,0.3681,0.3698,0.372,0.3738,0.3758,0.3766,0.3782,0.379,0.3812,0.3807,0.3838,0.3827,0.3838,0.3847,0.3848,0.3852,0.3845,0.3857,0.3879,0.3882,0.3854,0.3853,0.3853,0,0.3605,0.364,0.3664,0.3675,0.3702,0.3714,0.3726,0.3746,0.3759,0.3779,0.3787,0.381,0.3822,0.3839,0.3852,0.3847,0.3882,0.3878,0.3889,0.3888,0.3896,0.3895,0.392,0.3903,0.3903,0.3903,0.3903,0,0.3629,0.3649,0.3669,0.3684,0.3706,0.372,0.3742,0.3754,0.3772,0.3789,0.3798,0.3814,0.3831,0.3849,0.386,0.3883,0.3889,0.3895,0.3898,0.3895,0.3894,0.3902,0.3901,0.3904,0.3904,0.3904,0.3903,0,0.3643,0.3657,0.3684,0.3707,0.3714,0.3729,0.3749,0.3764,0.3776,0.3798,0.3803,0.3822,0.3844,0.3859,0.3887,0.3894,0.3919,0.3922,0.3912,0.3914,0.3924,0.3922,0.3955,0.3959,0.394,0.394,0.394,0,0.3657,0.3673,0.3697,0.3709,0.3721,0.374,0.3754,0.3767,0.3781,0.3804,0.3816,0.3838,0.3857,0.3891,0.3907,0.3928,0.3931,0.3941,0.3935,0.393,0.3931,0.393,0.3931,0.3942,0.3942,0.3943,0.3943,0,0.368,0.3686,0.3705,0.3726,0.3741,0.3759,0.3776,0.3785,0.3802,0.3816,0.3838,0.3852,0.388,0.3902,0.3925,0.3937,0.3942,0.3944,0.3948,0.3945,0.3938,0.3941,0.3915,0.3944,0.3944,0.3944,0.3943,0.3943,0.3695,0.3709,0.3728,0.3748,0.3762,0.3778,0.3792,0.3805,0.3824,0.3847,0.3854,0.3877,0.3896,0.3926,0.3939,0.3957,0.3956,0.3961,0.3963,0.3964,0.3963,0.3935,0.3961,0.3961,0.3961,0.3961,0.3961,0,0.3718,0.373,0.3749,0.3772,0.3788,0.3791,0.381,0.3823,0.3843,0.386,0.3877,0.3902,0.3923,0.394,0.3961,0.3972,0.3975,0.3977,0.3976,0.3979,0.3963,0.3958,0.3974,0.3974,0.3974,0.3974,0.3974,0.3974,0.3732,0.3755,0.3763,0.3793,0.3806,0.3827,0.3838,0.3852,0.3866,0.3893,0.391,0.392,0.3937,0.3959,0.3978,0.3983,0.399,0.3992,0.3997,0.3982,0.398,0.3979,0.3974,0.3993,0.3993,0.4011,0.4011,0.4011]},{"header":{"parameterUnit":"m.s-1","parameterCategory":1,"la1":30.2991,"la2":30.254,"lo1":-89.0895,"lo2":-89.0444,"dy":0.0017,"dx":0.0017,"nx":28,"ny":28,"refTime":"2025-02-05T03:00:00:Z","depth":0,"parameterNumber":3,"parameterNumberName":"V-component_of_WINDS"},"data":[0,0,0,0,0,0,0,0,0,0,0,0,0,0,0,0,0,0,0,0,0,0,0,0,0,0,0,0,0,0,0,0,0,0,0,0,0,0,0,0,0,0,0,0,0,0,0,0,0,0,0,0,0,0,0,0,0,0,1.7657,1.7657,0,1.762,1.7619,1.7619,1.7602,1.7602,1.7602,1.7602,1.756,1.7559,1.7557,0,0,0,0,0,0,0,0,0,0,0,0,0,1.771,1.7709,1.7657,1.7657,1.7656,1.762,1.7619,1.7619,1.7602,1.7602,1.7602,1.7602,1.756,1.7559,1.7557,0,0,0,0,0,0,0,0,0,0,0,0,0,1.7681,1.7709,1.7657,1.7644,1.7642,1.762,1.7619,1.7618,1.7602,1.7602,1.7602,1.7602,1.7561,1.7559,1.7557,1.7544,0,0,1.7552,1.7551,0,0,0,0,0,0,0,0,1.7683,1.7679,1.7646,1.7644,1.7643,1.7616,1.7622,1.7593,1.7602,1.7617,1.7602,1.7602,1.7578,1.7575,1.7567,1.7542,1.754,1.7551,1.755,1.755,1.7549,0,0,0,0,0,0,0,1.7685,1.7681,1.7642,1.7646,1.7643,1.7638,1.7634,1.7617,1.7597,1.7616,1.7615,1.7611,1.7577,1.7569,1.7566,1.754,1.7552,1.755,1.7549,1.7548,1.7502,1.7501,0,0,0,0,0,0,1.769,1.7682,1.7643,1.7641,1.7663,1.7637,1.7632,1.7624,1.7598,1.7594,1.761,1.761,1.7572,1.7568,1.7565,1.7548,1.755,1.7548,1.7547,1.7502,1.7501,1.7501,0,0,0,0,0,0,1.7691,1.7686,1.7645,1.7661,1.7656,1.7636,1.7627,1.7623,1.7616,1.7594,1.759,1.7606,1.7572,1.7567,1.755,1.7546,1.7547,1.7546,1.7502,1.7502,1.7501,1.7514,0,0,0,0,0,0,1.7692,1.7687,1.7683,1.7661,1.7655,1.7632,1.7627,1.7623,1.7613,1.7612,1.7589,1.7585,1.7572,1.7552,1.7548,1.7544,1.7544,1.7502,1.7502,1.7501,1.7514,1.7514,1.7515,0,0,0,0,0,1.7694,1.7687,1.7683,1.7678,1.765,1.7632,1.7628,1.7614,1.7613,1.7608,1.7594,1.7586,1.7547,1.7551,1.7546,1.7541,1.7502,1.7502,1.7502,1.7514,1.7514,1.7515,0,0,0,0,0,0,1.7707,1.7684,1.7679,1.7665,1.765,1.7629,1.7622,1.7615,1.76,1.7599,1.7582,1.7576,1.756,1.7548,1.7553,1.7527,1.7524,1.7522,1.7535,1.7535,1.7536,1.7539,1.7543,0,0,0,0,0,1.7708,1.7697,1.7677,1.7666,1.7659,1.7642,1.7634,1.7625,1.7608,1.7602,1.7586,1.757,1.7554,1.7544,1.7528,1.7512,1.7506,1.7506,1.7506,1.7507,1.7506,1.7496,1.7495,1.75,1.75,1.75,0,0,1.7711,1.7697,1.769,1.7668,1.7656,1.7644,1.7637,1.7624,1.7614,1.7599,1.7582,1.757,1.755,1.7534,1.7525,1.7523,1.7503,1.7506,1.7507,1.7505,1.7495,1.7495,1.7494,1.75,1.75,1.75,0,0,1.7708,1.7697,1.7687,1.7675,1.7657,1.7646,1.7643,1.7623,1.7615,1.7598,1.7586,1.7573,1.7547,1.7533,1.7523,1.7515,1.7507,1.751,1.7512,1.7503,1.7502,1.7502,1.7499,1.7498,1.7509,1.7509,1.7509,0,1.7713,1.7695,1.7682,1.767,1.766,1.7648,1.7637,1.7625,1.7603,1.7595,1.7594,1.756,1.7546,1.7526,1.7524,1.7516,1.7512,1.7513,1.7504,1.7503,1.7502,1.7499,1.7498,1.751,1.751,1.751,1.751,0,1.7701,1.7689,1.7683,1.7663,1.7652,1.764,1.7625,1.7615,1.7607,1.7595,1.7577,1.756,1.754,1.7535,1.7526,1.7513,1.7512,1.7507,1.7504,1.7503,1.75,1.7498,1.7511,1.751,1.751,1.751,0,0,1.7706,1.768,1.7677,1.7668,1.7647,1.7637,1.7624,1.7606,1.7598,1.7583,1.7571,1.7549,1.7544,1.7532,1.7522,1.7514,1.7508,1.7509,1.7509,1.751,1.7492,1.7496,1.7495,1.7503,1.7502,1.7502,1.7494,0,1.7701,1.7679,1.7667,1.765,1.7638,1.7626,1.7614,1.76,1.7588,1.7575,1.7562,1.7546,1.7542,1.7534,1.7526,1.7511,1.7504,1.7511,1.749,1.749,1.7496,1.7493,1.7497,1.749,1.7492,1.7492,1.7492,0,1.7692,1.7679,1.7661,1.7641,1.7636,1.7626,1.7609,1.7597,1.7579,1.7571,1.7558,1.7548,1.7532,1.7531,1.7509,1.7514,1.7504,1.7495,1.7495,1.7492,1.7491,1.749,1.7488,1.7487,1.749,1.749,1.749,0,1.7697,1.7674,1.7661,1.7653,1.763,1.7623,1.7613,1.7596,1.7586,1.757,1.7563,1.7546,1.7536,1.7521,1.7506,1.7506,1.7485,1.7482,1.7477,1.7478,1.7473,1.7474,1.7469,1.7467,1.7467,1.7467,1.7467,0,1.7693,1.7682,1.7663,1.7654,1.7641,1.7627,1.7614,1.7603,1.7588,1.7576,1.7564,1.7552,1.7533,1.7518,1.7506,1.7489,1.7485,1.7477,1.7474,1.7478,1.7479,1.7472,1.7472,1.7467,1.7467,1.7467,1.7467,0,1.7696,1.7683,1.7667,1.7647,1.7642,1.7633,1.7615,1.7606,1.7594,1.7579,1.7575,1.7555,1.7538,1.7521,1.7498,1.7489,1.7472,1.7468,1.7479,1.7477,1.7473,1.7474,1.7463,1.7461,1.7461,1.7461,1.7461,0,1.7695,1.7686,1.7666,1.7658,1.7648,1.7635,1.7625,1.761,1.76,1.758,1.7572,1.7555,1.754,1.7512,1.7495,1.7477,1.7472,1.7469,1.7469,1.7474,1.7472,1.7472,1.7471,1.747,1.747,1.747,1.747,0,1.7692,1.7686,1.7673,1.7658,1.7647,1.7634,1.762,1.7614,1.7595,1.7585,1.7568,1.7556,1.7533,1.7515,1.7494,1.7482,1.7473,1.747,1.7468,1.7473,1.7479,1.7475,1.748,1.7471,1.7471,1.7471,1.7471,1.7471,1.7693,1.7685,1.767,1.7655,1.7644,1.7631,1.7622,1.7609,1.7595,1.7576,1.7567,1.755,1.7532,1.7504,1.7492,1.7477,1.7475,1.7472,1.7471,1.747,1.7471,1.7482,1.7473,1.7473,1.7473,1.7473,1.7473,0,1.769,1.768,1.7667,1.7649,1.7637,1.7631,1.7615,1.7606,1.7591,1.7576,1.7562,1.7542,1.7524,1.7506,1.7487,1.7479,1.7474,1.7474,1.7475,1.7472,1.7474,1.7478,1.7479,1.7479,1.7479,1.7479,1.7479,1.7479,1.7687,1.7674,1.7666,1.7646,1.7635,1.7619,1.7611,1.7598,1.7586,1.7565,1.7551,1.754,1.7523,1.7503,1.7486,1.7481,1.7474,1.7476,1.7469,1.7472,1.7472,1.7471,1.7475,1.7474,1.7474,1.7468,1.7468,1.7468]}]]